(364) Isara
ephemeris date magn radius delta ra dec elong phase
Today17 Sep 202514.92.402 AU3.381 AU12h22m+02°10'11.1°4.6°
Opposition28 May 202613.22.546 AU1.537 AU16h28m-15°31'173.8°2.5°
(364) Isara - 2025-09-17
astro.vanbuitenen.nl


 
-1 year
-1 month
-1 day
Now
+1 day
+1 month
+1 year

The interactive orbit chart above shows the body's path through the solar system and its position at the given date. Green and blue lines are shown perpendicular to the ecliptic plane: Green if the path is above the ecliptic plane, blue if it is below. (Left-click and drag to rotate the view; Right-click and drag to move the view; Use scroll wheel to zoom in our out.)

The orbital elements of Isara are:

            e (Eccentricity)                : 0.1492947
            a (Semimajor axis)              : 2.2202283
            i (Inclination)                 : 6.00619
            Ω (Longitude of ascending node) : 105.50267
            ω (Argument of perihelion)      : 312.98493
            M (Mean anomaly)                : 75.93535
            Epoch                           : 2025 May 05

            L (Longitude of perihelion)     : 58.64493
            B (Latitude of perihelion)      : -4.38998
            P (Orbital period in years)     : 3.31            
        

The light curve chart below shows the estimated development of the minor planet's magnitude.


The all-sky chart below shows the path of the minor planet over the same period as the light curve. The current position is marked yellow.





The following chart shows the path of the minor planet in the next few days. The field of view is optimized for (~10x50) binoculars and finderscopes. A more printer-friendly version of the same chart can be found below.




Ephemerides:
Date       Time       RA (2000)    DEC (2000)    delta   radius  elong  phase   PA    magn
2025-09-17 00:00 UT   12 22 36.1   +02 10 01     3.381    2.402   11.1    4.6    91   14.9 
2025-09-17 23:20 UT   12 24 16.1   +01 59 15     3.384    2.404   10.7    4.4    90   14.9 
2025-09-18 00:00 UT   12 24 18.9   +01 58 56     3.384    2.404   10.7    4.4    90   14.9 
2025-09-19 00:00 UT   12 26 01.7   +01 47 53     3.387    2.405   10.2    4.2    89   14.9 
2025-09-20 00:00 UT   12 27 44.5   +01 36 50     3.390    2.406    9.7    4.1    88   14.8 
2025-09-21 00:00 UT   12 29 27.2   +01 25 49     3.393    2.408    9.3    3.9    86   14.8 
2025-09-22 00:00 UT   12 31 10.0   +01 14 48     3.396    2.409    8.8    3.7    85   14.8 
2025-09-23 00:00 UT   12 32 52.7   +01 03 48     3.398    2.410    8.4    3.5    83   14.8 
2025-09-24 00:00 UT   12 34 35.5   +00 52 50     3.401    2.411    8.0    3.3    81   14.8 
2025-09-25 00:00 UT   12 36 18.2   +00 41 52     3.403    2.413    7.5    3.1    79   14.8 
2025-09-26 00:00 UT   12 38 00.9   +00 30 56     3.406    2.414    7.1    2.9    77   14.8 
2025-09-27 00:00 UT   12 39 43.6   +00 20 01     3.408    2.415    6.7    2.8    74   14.8 
2025-09-28 00:00 UT   12 41 26.3   +00 09 07     3.410    2.417    6.3    2.6    71   14.8 
2025-09-29 00:00 UT   12 43 09.0   +00 01 45     3.412    2.418    5.9    2.5    68   14.8 
2025-09-30 00:00 UT   12 44 51.6   +00 12 36     3.414    2.419    5.6    2.3    64   14.8 
2025-10-01 00:00 UT   12 46 34.3   +00 23 25     3.416    2.420    5.3    2.2    59   14.8 
2025-10-02 00:00 UT   12 48 16.9   +00 34 13     3.417    2.422    5.0    2.1    55   14.8 
2025-10-03 00:00 UT   12 49 59.5   +00 44 59     3.419    2.423    4.7    2.0    49   14.7 
2025-10-04 00:00 UT   12 51 42.1   +00 55 43     3.420    2.424    4.5    1.9    43   14.7 
2025-10-05 00:00 UT   12 53 24.7   -01 06 26     3.421    2.425    4.4    1.8    37   14.7 


    Terminology:
            
    delta:  distance between minor planet and earth in AU
    radius: distance between minor planet and sun in AU
    magn:   magnitude (brightness) estimate    
    ra:     right ascension in hours (24h = 360deg)
    dec:    declination in degrees
    elong:  elongation in degrees (angle sun-earth-minor planet)    
    phase:  phase angle in degrees (angle sun-minor planet-earth)        
    AU:     Astronomical Unit (mean distance between earth and sun: 149597870.7 km
    

Orbital elements provided by the MPC (Minor Planet Center).
Calculations by a modified version of AAPlus, a C# implementation of the AA+ project by PJ Naughter from the algorithms presented in the book "Astronomical Algorithms" by Jean Meeus.
NGC2000 dso catalog and star labels from VizieR as provided by the Strasbourg astronomical Data Center.
Tycho2 catalog from the ESO archive.